Kill Devil Hills, NC

2:54 PM EDT on June 22, 2017 (GMT -0400)
First Flight

Weather History for KFFA - October, 2013

Change the Weather History Date:

Friday, October 25, 2013

  Actual Average (KMQI) Record (KMQI)
Temperature  
Mean Temperature 48 °F -  
Max Temperature 51 °F 66 °F 82 °F (2001)
Min Temperature 44 °F 54 °F 41 °F (1969)
Degree Days  
Heating Degree Days 18    
Moisture  
Dew Point 30 °F    
Average Humidity 52    
Maximum Humidity 69    
Minimum Humidity 35    
Precipitation  
Precipitation 0.00 in - - ()
Sea Level Pressure  
Sea Level Pressure 30.24 in    
Wind  
Wind Speed 6 mph (NW)    
Max Wind Speed 10 mph    
Max Gust Speed 20 mph    
Visibility 10 miles    
Events      
Averages and records for this station are not official NWS values.
T = Trace of Precipitation, MM = Missing Value Source: NWS Daily Summary

Daily Weather History Graph

Daily Weather History Graph

Search for Another Location

Airport or City:

Trip Planner

Search our weather history database for the weather conditions in past years. The results will help you decide how hot, cold, wet, or windy it might be!

Date:

Astronomy

Oct. 25, 2013 Rise Set
Actual Time 7:18 AM EDT 6:14 PM EDT
Civil Twilight 6:52 AM EDT 6:40 PM EDT
Nautical Twilight 6:22 AM EDT 7:10 PM EDT
Astronomical Twilight 5:52 AM EDT 7:40 PM EDT
Moon 11:34 PM EDT (10/25) 12:54 PM EDT (10/25)
Length of Visible Light 11h 47m
Length of Day
10h 55m
Waning Gibbous, 62% of the Moon is Illuminated
Oct 25
Waning Gibbous
Oct 26
Last Quarter
Nov 3
New
Nov 10
First Quarter
Nov 17
Full

Hourly Weather History & Observations

Time (EDT) Temp. Windchill Dew Point Humidity Pressure Visibility Wind Dir Wind Speed Gust Speed Precip Events Conditions
12:15 AM 49.6 °F - 28.9 °F 45% 30.15 in 10.0 mi NW 6.9 mph - N/A   Mostly Cloudy
12:35 AM 49.5 °F - 29.1 °F 46% 30.15 in 10.0 mi WNW 5.8 mph - N/A   Scattered Clouds
12:55 AM 49.1 °F - 30.2 °F 48% 30.15 in 10.0 mi NW 8.1 mph - N/A   Clear
1:15 AM 48.9 °F - 30.4 °F 49% 30.15 in 10.0 mi NW 6.9 mph - N/A   Clear
1:35 AM 48.2 °F - 29.5 °F 48% 30.15 in 10.0 mi NW 6.9 mph - N/A   Clear
1:55 AM 47.7 °F - 30.2 °F 51% 30.15 in 10.0 mi WNW 4.6 mph - N/A   Clear
2:15 AM 47.1 °F - 30.9 °F 53% 30.15 in 10.0 mi WNW 3.5 mph - N/A   Clear
2:35 AM 46.6 °F - 31.5 °F 56% 30.15 in 10.0 mi WNW 4.6 mph - N/A   Clear
2:55 AM 46.6 °F - 31.6 °F 56% 30.16 in 10.0 mi NW 6.9 mph - N/A   Clear
3:15 AM 46.2 °F 45.0 °F 32.0 °F 58% 30.16 in 10.0 mi NW 3.5 mph - N/A   Scattered Clouds
3:35 AM 45.9 °F 42.9 °F 31.8 °F 58% 30.16 in 10.0 mi NW 5.8 mph - N/A   Scattered Clouds
3:55 AM 45.9 °F 42.3 °F 31.5 °F 57% 30.16 in 10.0 mi WNW 6.9 mph - N/A   Mostly Cloudy
4:15 AM 45.9 °F 44.6 °F 31.1 °F 56% 30.16 in 10.0 mi NW 3.5 mph - N/A   Scattered Clouds
4:35 AM 46.0 °F 43.1 °F 31.1 °F 56% 30.17 in 10.0 mi WNW 5.8 mph - N/A   Mostly Cloudy
4:55 AM 46.4 °F 43.5 °F 31.1 °F 55% 30.17 in 10.0 mi WNW 5.8 mph - N/A   Mostly Cloudy
5:15 AM 46.6 °F - 30.7 °F 54% 30.18 in 10.0 mi WNW 5.8 mph - N/A   Mostly Cloudy
5:35 AM 46.4 °F 43.5 °F 32.4 °F 58% 30.18 in 10.0 mi WNW 5.8 mph - N/A   Overcast
5:55 AM 45.9 °F 42.3 °F 34.2 °F 64% 30.20 in 10.0 mi WNW 6.9 mph - N/A   Overcast
6:15 AM 45.3 °F 41.6 °F 35.4 °F 68% 30.20 in 10.0 mi WNW 6.9 mph - N/A   Overcast
6:35 AM 45.0 °F 40.6 °F 35.1 °F 68% 30.21 in 10.0 mi WNW 8.1 mph - N/A   Mostly Cloudy
6:55 AM 44.8 °F 40.4 °F 35.1 °F 69% 30.22 in 10.0 mi WNW 8.1 mph - N/A   Mostly Cloudy
7:15 AM 44.6 °F 40.2 °F 33.1 °F 64% 30.22 in 10.0 mi NW 8.1 mph - N/A   Scattered Clouds
7:35 AM 44.6 °F 39.7 °F 32.2 °F 62% 30.22 in 10.0 mi NW 9.2 mph - N/A   Scattered Clouds
7:55 AM 44.4 °F 41.2 °F 32.5 °F 63% 30.23 in 10.0 mi NW 5.8 mph 16.1 mph N/A   Scattered Clouds
8:15 AM 44.6 °F 39.7 °F 33.3 °F 64% 30.23 in 10.0 mi NW 9.2 mph - N/A   Mostly Cloudy
8:35 AM 44.2 °F 39.7 °F 32.9 °F 64% 30.24 in 10.0 mi NNW 8.1 mph 16.1 mph N/A   Mostly Cloudy
8:55 AM 44.4 °F 40.5 °F 32.7 °F 64% 30.25 in 10.0 mi NW 6.9 mph - N/A   Scattered Clouds
9:15 AM 44.8 °F 41.6 °F 33.3 °F 64% 30.25 in 10.0 mi NW 5.8 mph 16.1 mph N/A   Scattered Clouds
9:35 AM 45.5 °F 40.8 °F 33.4 °F 63% 30.25 in 10.0 mi NW 9.2 mph - N/A   Mostly Cloudy
9:55 AM 45.1 °F 39.9 °F 32.5 °F 61% 30.25 in 10.0 mi NNW 10.4 mph 16.1 mph N/A   Mostly Cloudy
10:15 AM 45.1 °F 42.8 °F 32.7 °F 62% 30.25 in 10.0 mi NW 4.6 mph - N/A   Mostly Cloudy
10:35 AM 47.1 °F - 32.5 °F 57% 30.25 in 10.0 mi NW 8.1 mph - N/A   Scattered Clouds
10:55 AM 48.6 °F - 31.8 °F 52% 30.25 in 10.0 mi NW 8.1 mph - N/A   Clear
11:15 AM 49.1 °F - 30.7 °F 49% 30.25 in 10.0 mi NW 8.1 mph - N/A   Clear
11:35 AM 49.3 °F - 29.5 °F 46% 30.26 in 10.0 mi WNW 6.9 mph - N/A   Clear
11:55 AM 50.2 °F - 29.1 °F 44% 30.25 in 10.0 mi NW 9.2 mph - N/A   Clear
12:15 PM 50.4 °F - 28.4 °F 43% 30.25 in 10.0 mi NW 5.8 mph 17.3 mph N/A   Clear
12:35 PM 50.5 °F - 26.2 °F 39% 30.25 in 10.0 mi NW 6.9 mph 19.6 mph N/A   Clear
12:55 PM 50.7 °F - 25.0 °F 37% 30.24 in 10.0 mi NW 8.1 mph - N/A   Clear
1:15 PM 50.7 °F - 27.9 °F 41% 30.24 in 10.0 mi NW 6.9 mph - N/A   Clear
1:35 PM 51.1 °F - 29.3 °F 43% 30.24 in 10.0 mi NNW 8.1 mph - N/A   Clear
1:55 PM 51.1 °F - 26.2 °F 38% 30.24 in 10.0 mi WNW 9.2 mph - N/A   Clear
2:15 PM 51.6 °F - 25.0 °F 36% 30.24 in 10.0 mi NNW 10.4 mph 17.3 mph N/A   Clear
2:35 PM 51.6 °F - 26.1 °F 37% 30.24 in 10.0 mi NNW 9.2 mph - N/A   Clear
2:55 PM 51.4 °F - 25.5 °F 37% 30.24 in 10.0 mi NNW 9.2 mph - N/A   Clear
3:15 PM 51.4 °F - 25.3 °F 36% 30.24 in 10.0 mi NNW 9.2 mph - N/A   Clear
3:35 PM 51.4 °F - 24.6 °F 35% 30.24 in 10.0 mi North 9.2 mph 16.1 mph N/A   Clear
3:55 PM 51.3 °F - 24.3 °F 35% 30.24 in 10.0 mi NNW 6.9 mph - N/A   Clear
4:15 PM 51.4 °F - 25.9 °F 37% 30.25 in 10.0 mi NNW 4.6 mph - N/A   Clear
4:35 PM 51.1 °F - 25.9 °F 38% 30.25 in 10.0 mi NNW 5.8 mph - N/A   Clear
4:55 PM 50.7 °F - 25.7 °F 38% 30.25 in 10.0 mi NW 6.9 mph - N/A   Clear
5:15 PM 50.4 °F - 26.8 °F 40% 30.25 in 10.0 mi NW 4.6 mph - N/A   Clear
5:35 PM 49.6 °F - 26.4 °F 41% 30.26 in 10.0 mi NW 4.6 mph - N/A   Clear
5:55 PM 48.9 °F - 27.7 °F 44% 30.26 in 10.0 mi NNW 6.9 mph - N/A   Clear
6:15 PM 48.0 °F - 27.9 °F 46% 30.27 in 10.0 mi NNW 6.9 mph - N/A   Clear
6:35 PM 47.7 °F - 28.9 °F 48% 30.27 in 10.0 mi Calm Calm - N/A   Clear
6:55 PM 47.3 °F - 29.8 °F 51% 30.28 in 10.0 mi NW 3.5 mph - N/A   Clear
7:15 PM 47.1 °F - 30.2 °F 52% 30.28 in 10.0 mi NW 3.5 mph - N/A   Clear
7:35 PM 47.3 °F - 30.9 °F 53% 30.29 in 10.0 mi NW 4.6 mph - N/A   Clear
7:55 PM 47.5 °F - 31.3 °F 53% 30.30 in 10.0 mi NW 4.6 mph - N/A   Clear
8:15 PM 47.5 °F - 31.8 °F 55% 30.30 in 10.0 mi NW 4.6 mph - N/A   Clear
8:35 PM 47.3 °F - 31.8 °F 55% 30.30 in 10.0 mi NW 4.6 mph - N/A   Clear
8:55 PM 47.3 °F - 31.6 °F 55% 30.30 in 10.0 mi NW 4.6 mph - N/A   Clear
9:15 PM 47.1 °F - 31.8 °F 55% 30.30 in 10.0 mi NW 3.5 mph - N/A   Clear
9:35 PM 47.1 °F - 32.0 °F 56% 30.30 in 10.0 mi NW 3.5 mph - N/A   Clear
9:55 PM 47.1 °F - 32.0 °F 56% 30.31 in 10.0 mi NW 3.5 mph - N/A   Clear
10:15 PM 47.3 °F - 31.8 °F 55% 30.32 in 10.0 mi NW 3.5 mph - N/A   Clear
10:35 PM 47.1 °F - 31.6 °F 55% 30.32 in 10.0 mi NW 4.6 mph - N/A   Clear
10:55 PM 47.1 °F - 32.0 °F 56% 30.32 in 10.0 mi NW 4.6 mph - N/A   Clear
11:15 PM 47.1 °F - 32.0 °F 56% 30.32 in 10.0 mi WNW 4.6 mph - N/A   Clear
11:35 PM 47.1 °F - 31.8 °F 55% 30.32 in 10.0 mi NW 4.6 mph - N/A   Clear
11:55 PM 46.9 °F - 32.0 °F 56% 30.32 in 10.0 mi WNW 3.5 mph - N/A   Clear